Current weather by "City, St" or "zip code"  
 
Advertise Here

Current Conditions: Presque Isle, ME

Overcast


17.0 F

Last Updated on Jan 25 2021, 4:56 am EST
Humidity: 77%
Wind Speed: W 12.7 mph
Barometer 29.81 in
Dewpoint: 10.9 F
Visibility: 10.00 mi
Precip: --
Heat Index: NA
Wind Chill: 4 F
Current conditions at:

Presque Isle, ME (KPQI)

Lat: 46.68333 Lon: 68.05

Local Radar Image active severe weather and emergency alerts image image weather storm and storm spotter reports image weather observation monitoring service image
Local
Radar
Active
Alerts
Storm Reports Obs
Monitoring

Sign-up For Email & Text Message Weather Alert Notification Services


Advertise Here

Observation History for Presque Isle, ME


Time Wind
(mph)
Vis
(mi)
Weather Precip (in) Temperature (F) Relative
Humidity
Wind
Chill
(F)
Heat
Index
(F)
Pressure
Air Dwpt altimeter
(in)
sea level
(mb)
Rmks
4:56 am EST W 12.7 10.00 Overcast -- 17.0 10.9 77% 4 NA 29.81 1013.1
3:56 am EST NW 15.0 G 19.6 10.00 Overcast -- 17.0 10.9 77% 2 NA 29.80 1012.9
2:56 am EST W 17.3 G 23.0 10.00 Overcast -- 17.0 10.9 77% 1 NA 29.79 1012.6
1:56 am EST W 9.2 G 18.4 10.00 Overcast -- 17.0 10.9 77% 6 NA 29.79 1012.6
12:56 am EST W 8.1 G 17.3 10.00 Overcast -- 17.0 12.0 80% 7 NA 29.78 1012.0
11:56 pm EST W 11.5 G 17.3 10.00 Overcast -- 16.0 10.9 80% 3 NA 29.78 1011.9
10:56 pm EST W 11.5 10.00 Overcast -- 17.0 10.9 77% 4 NA 29.79 1012.4
9:56 pm EST W 12.7 10.00 Overcast -- 17.0 12.0 80% 4 NA 29.79 1012.4
8:56 pm EST W 12.7 10.00 Overcast -- 19.0 12.9 77% 6 NA 29.77 1011.7
7:56 pm EST NW 12.7 G 18.4 10.00 Overcast -- 20.0 14.0 78% 7 NA 29.76 1011.4
6:56 pm EST NW 11.5 9.00 Overcast -- 20.0 14.0 78% 8 NA 29.75 1011.1
5:56 pm EST NW 15.0 10.00 Overcast -- 20.0 12.9 74% 6 NA 29.73 1010.4
4:56 pm EST NW 11.5 G 20.7 10.00 Overcast -- 20.0 12.9 74% 8 NA 29.71 1009.6
3:56 pm EST W 11.5 10.00 Overcast -- 22.0 15.1 75% 10 NA 29.68 1008.6
2:56 pm EST NW 16.1 G 24.2 10.00 Overcast -- 23.0 15.1 72% 10 NA 29.65 1007.5
1:56 pm EST NW 17.3 G 27.6 9.00 Overcast -- 23.0 14.0 68% 9 NA 29.62 1006.5
12:56 pm EST NW 18.4 G 25.3 10.00 Overcast -- 24.0 12.9 62% 10 NA 29.60 1005.9
11:56 am EST NW 12.7 10.00 Overcast -- 22.0 12.0 66% 10 NA 29.60 1005.8
10:56 am EST NW 12.7 10.00 Overcast -- 20.0 10.9 68% 7 NA 29.59 1005.6
9:56 am EST W 12.7 G 17.3 10.00 Overcast Trace 17.0 9.0 70% 4 NA 29.60 1005.9
8:56 am EST W 11.5 7.00 Light Snow Trace 14.0 7.0 73% NA NA 29.57 1005.2
7:56 am EST W 12.7 G 19.6 2.00 Light Snow Trace 12.0 7.0 80% -3 NA 29.56 1004.6
6:56 am EST W 13.8 3.00 Light Snow Trace 12.0 7.0 80% -3 NA 29.54 1003.9
5:56 am EST W 12.7 G 18.4 8.00 Light Snow Trace 13.0 7.0 77% -2 NA 29.51 1002.9

Regional Weather Observation


Presque Isle, ME (KPQI)

Overcast
17.0 F

Frenchville, Northern Aroostook Regional Airport, ME (KFVE)

Overcast
17.0 F

Houlton, Houlton International Airport, ME (KHUL)

Overcast
18.0 F

Clayton Lake, ME (K40B)

NULL
11.0 F

Millinocket, Millinocket Municipal Airport, ME (KMLT)

Fair
14.0 F

Greenville, ME (KGNR)

Breezy
10.0 F